Osceola, WI

7:33 PM CDT on June 25, 2017 (GMT -0500)
Simenstad Municipal

Weather History for KOEO - October, 2013

Change the Weather History Date:

Saturday, October 26, 2013

  Actual Average (KANE) Record (KANE)
Temperature  
Mean Temperature 44 °F -  
Max Temperature 48 °F 50 °F 69 °F (2000)
Min Temperature 37 °F 35 °F 21 °F (1997)
Degree Days  
Heating Degree Days 22    
Moisture  
Dew Point 31 °F    
Average Humidity 65    
Maximum Humidity 74    
Minimum Humidity 55    
Precipitation  
Precipitation 0.00 in - - ()
Sea Level Pressure  
Sea Level Pressure 30.00 in    
Wind  
Wind Speed 10 mph (WNW)    
Max Wind Speed 17 mph    
Max Gust Speed 25 mph    
Visibility 10 miles    
Events      
Averages and records for this station are not official NWS values.
T = Trace of Precipitation, MM = Missing Value Source: NWS Daily Summary

Daily Weather History Graph

Daily Weather History Graph

Search for Another Location

Airport or City:

Trip Planner

Search our weather history database for the weather conditions in past years. The results will help you decide how hot, cold, wet, or windy it might be!

Date:

Astronomy

Oct. 26, 2013 Rise Set
Actual Time 7:41 AM CDT 6:06 PM CDT
Civil Twilight 7:11 AM CDT 6:37 PM CDT
Nautical Twilight 6:36 AM CDT 7:11 PM CDT
Astronomical Twilight 6:02 AM CDT 7:45 PM CDT
Moon No Moon Rise 2:00 PM CDT
Length of Visible Light 11h 25m
Length of Day
10h 24m
Waning Gibbous, 53% of the Moon is Illuminated
Oct 26
Waning Gibbous
Oct 26
Last Quarter
Nov 3
New
Nov 9
First Quarter
Nov 17
Full

Hourly Weather History & Observations

Time (CDT) Temp. Windchill Dew Point Humidity Pressure Visibility Wind Dir Wind Speed Gust Speed Precip Events Conditions
12:15 AM 50.4 °F - 41.2 °F 71% 29.78 in 10.0 mi West 10.4 mph - N/A   Scattered Clouds
12:35 AM 48.9 °F - 40.5 °F 73% 29.78 in 10.0 mi West 9.2 mph - N/A   Scattered Clouds
12:55 AM 48.9 °F - 39.4 °F 70% 29.78 in 10.0 mi West 10.4 mph - N/A   Scattered Clouds
1:15 AM 48.6 °F - 38.3 °F 68% 29.79 in 10.0 mi West 10.4 mph 16.1 mph N/A   Scattered Clouds
1:35 AM 48.2 °F - 36.5 °F 64% 29.79 in 10.0 mi WNW 13.8 mph 18.4 mph N/A   Clear
1:55 AM 47.1 °F - 36.5 °F 67% 29.80 in 10.0 mi WNW 15.0 mph 20.7 mph N/A   Clear
2:15 AM 47.3 °F - 35.1 °F 62% 29.81 in 10.0 mi WNW 12.7 mph 21.9 mph N/A   Scattered Clouds
2:35 AM 46.2 °F 40.1 °F 34.7 °F 64% 29.81 in 10.0 mi WNW 13.8 mph 18.4 mph N/A   Scattered Clouds
2:55 AM 44.8 °F 39.0 °F 34.2 °F 66% 29.82 in 10.0 mi WNW 11.5 mph - N/A   Scattered Clouds
3:15 AM 44.6 °F 39.7 °F 33.3 °F 64% 29.82 in 10.0 mi West 9.2 mph 19.6 mph N/A   Clear
3:35 AM 43.5 °F 37.9 °F 32.0 °F 64% 29.83 in 10.0 mi WNW 10.4 mph 17.3 mph N/A   Clear
3:55 AM 43.0 °F 36.0 °F 30.4 °F 61% 29.84 in 10.0 mi WNW 13.8 mph 18.4 mph N/A   Clear
4:15 AM 42.1 °F 36.1 °F 30.4 °F 63% 29.85 in 10.0 mi NW 10.4 mph - N/A   Clear
4:35 AM 41.2 °F 35.5 °F 30.6 °F 66% 29.86 in 10.0 mi WNW 9.2 mph - N/A   Scattered Clouds
4:55 AM 41.9 °F 33.7 °F 31.5 °F 66% 29.87 in 10.0 mi WNW 17.3 mph 24.2 mph N/A   Mostly Cloudy
5:15 AM 41.2 °F 34.1 °F 32.0 °F 70% 29.89 in 10.0 mi NW 12.7 mph 20.7 mph N/A   Overcast
5:35 AM 40.5 °F 32.8 °F 32.0 °F 72% 29.91 in 10.0 mi WNW 13.8 mph 19.6 mph N/A   Overcast
5:55 AM 40.8 °F 34.1 °F 32.0 °F 71% 29.92 in 10.0 mi WNW 11.5 mph 20.7 mph N/A   Overcast
6:15 AM 40.6 °F 32.3 °F 32.0 °F 71% 29.93 in 10.0 mi WNW 16.1 mph 21.9 mph N/A   Overcast
6:35 AM 39.4 °F 32.3 °F 31.1 °F 72% 29.94 in 10.0 mi WNW 11.5 mph 18.4 mph N/A   Overcast
6:55 AM 38.5 °F 31.6 °F 30.7 °F 74% 29.95 in 10.0 mi NW 10.4 mph 16.1 mph N/A   Overcast
7:15 AM 39.0 °F 32.8 °F 30.9 °F 73% 29.96 in 10.0 mi WNW 9.2 mph 17.3 mph N/A   Overcast
7:35 AM 38.7 °F 31.4 °F 30.7 °F 73% 29.96 in 10.0 mi WNW 11.5 mph - N/A   Overcast
7:55 AM 39.2 °F 32.5 °F 31.1 °F 73% 29.98 in 10.0 mi WNW 10.4 mph 16.1 mph N/A   Overcast
8:15 AM 38.8 °F 32.1 °F 30.9 °F 73% 29.99 in 10.0 mi WNW 10.4 mph 17.3 mph N/A   Overcast
8:35 AM 39.2 °F 32.0 °F 30.9 °F 72% 29.99 in 10.0 mi WNW 11.5 mph 17.3 mph N/A   Mostly Cloudy
8:55 AM 39.4 °F 32.3 °F 31.1 °F 72% 30.00 in 10.0 mi WNW 11.5 mph - N/A   Overcast
9:15 AM 39.9 °F 33.4 °F 31.1 °F 71% 30.01 in 10.0 mi WNW 10.4 mph - N/A   Overcast
9:35 AM 40.1 °F 33.6 °F 30.7 °F 69% 30.02 in 10.0 mi WNW 10.4 mph 17.3 mph N/A   Mostly Cloudy
9:55 AM 41.2 °F 33.7 °F 30.7 °F 66% 30.03 in 10.0 mi NW 13.8 mph 25.3 mph N/A   Mostly Cloudy
10:15 AM 41.5 °F 34.6 °F 30.4 °F 65% 30.03 in 10.0 mi NW 12.7 mph 23.0 mph N/A   Overcast
10:35 AM 42.8 °F 36.2 °F 30.0 °F 61% 30.04 in 10.0 mi NNW 12.7 mph 20.7 mph N/A   Overcast
10:55 AM 41.9 °F 35.0 °F 30.2 °F 63% 30.05 in 10.0 mi NW 12.7 mph 19.6 mph N/A   Overcast
11:15 AM 41.9 °F 35.9 °F 30.6 °F 64% 30.06 in 10.0 mi NW 10.4 mph 19.6 mph N/A   Overcast
11:35 AM 41.9 °F 34.6 °F 30.9 °F 65% 30.07 in 10.0 mi NW 13.8 mph 17.3 mph N/A   Overcast
11:55 AM 41.9 °F 35.4 °F 30.9 °F 65% 30.08 in 10.0 mi WNW 11.5 mph 19.6 mph N/A   Overcast
12:15 PM 42.6 °F 35.9 °F 30.4 °F 62% 30.08 in 10.0 mi WNW 12.7 mph 18.4 mph N/A   Overcast
12:35 PM 44.1 °F 37.4 °F 30.7 °F 59% 30.08 in 10.0 mi WNW 13.8 mph 19.6 mph N/A   Overcast
12:55 PM 44.1 °F 37.4 °F 30.0 °F 58% 30.08 in 10.0 mi NW 13.8 mph 21.9 mph N/A   Overcast
1:15 PM 43.7 °F 37.7 °F 29.3 °F 57% 30.08 in 10.0 mi NNW 11.5 mph 20.7 mph N/A   Overcast
1:35 PM 43.7 °F 37.3 °F 29.3 °F 57% 30.09 in 10.0 mi WNW 12.7 mph 19.6 mph N/A   Overcast
1:55 PM 44.1 °F 38.6 °F 29.8 °F 57% 30.09 in 10.0 mi WNW 10.4 mph 16.1 mph N/A   Overcast
2:15 PM 44.1 °F 40.8 °F 29.8 °F 57% 30.08 in 10.0 mi NW 5.8 mph 12.7 mph N/A   Overcast
2:35 PM 45.0 °F 39.3 °F 29.5 °F 55% 30.08 in 10.0 mi NW 11.5 mph 16.1 mph N/A   Overcast
2:55 PM 44.2 °F 38.8 °F 29.3 °F 56% 30.09 in 10.0 mi NW 10.4 mph - N/A   Overcast
3:15 PM 44.2 °F 39.2 °F 29.1 °F 55% 30.10 in 10.0 mi NW 9.2 mph 19.6 mph N/A   Overcast
3:35 PM 44.4 °F 39.0 °F 29.1 °F 55% 30.10 in 10.0 mi NNW 10.4 mph - N/A   Overcast
3:55 PM 44.1 °F 39.0 °F 29.1 °F 56% 30.10 in 10.0 mi NW 9.2 mph 17.3 mph N/A   Overcast
4:15 PM 43.9 °F 38.8 °F 29.7 °F 57% 30.10 in 10.0 mi NNW 9.2 mph 16.1 mph N/A   Overcast
4:35 PM 43.7 °F 38.6 °F 29.3 °F 57% 30.10 in 10.0 mi NW 9.2 mph 16.1 mph N/A   Overcast
4:55 PM 43.7 °F 39.1 °F 28.8 °F 56% 30.10 in 10.0 mi NW 8.1 mph - N/A   Overcast
5:15 PM 43.2 °F 39.0 °F 28.8 °F 57% 30.10 in 10.0 mi NW 6.9 mph - N/A   Overcast
5:35 PM 42.8 °F 38.0 °F 28.9 °F 58% 30.10 in 10.0 mi NW 8.1 mph - N/A   Overcast
5:55 PM 42.3 °F 38.6 °F 28.8 °F 59% 30.10 in 10.0 mi NW 5.8 mph - N/A   Overcast
6:15 PM 41.9 °F 37.5 °F 29.5 °F 61% 30.11 in 10.0 mi WNW 6.9 mph - N/A   Overcast
6:35 PM 41.9 °F 35.9 °F 27.9 °F 58% 30.10 in 10.0 mi NNW 10.4 mph - N/A   Overcast
6:55 PM 41.5 °F 38.6 °F 27.9 °F 58% 30.10 in 10.0 mi NW 4.6 mph - N/A   Overcast
7:15 PM 41.0 °F 38.0 °F 28.4 °F 61% 30.11 in 10.0 mi WNW 4.6 mph - N/A   Overcast
7:35 PM 40.6 °F - 28.8 °F 63% 30.10 in 10.0 mi Calm Calm - N/A   Overcast
7:55 PM 40.6 °F 38.6 °F 29.3 °F 64% 30.11 in 10.0 mi WNW 3.5 mph - N/A   Overcast
8:15 PM 40.6 °F 37.5 °F 29.5 °F 64% 30.11 in 10.0 mi West 4.6 mph - N/A   Overcast
8:35 PM 40.5 °F 37.3 °F 29.7 °F 65% 30.10 in 10.0 mi West 4.6 mph - N/A   Overcast
8:55 PM 40.3 °F 35.5 °F 30.2 °F 67% 30.09 in 10.0 mi West 6.9 mph - N/A   Overcast
9:15 PM 40.3 °F 36.3 °F 30.2 °F 67% 30.09 in 10.0 mi West 5.8 mph - N/A   Overcast
9:35 PM 39.7 °F 34.9 °F 30.2 °F 69% 30.09 in 10.0 mi West 6.9 mph - N/A   Overcast
9:55 PM 39.6 °F 36.3 °F 29.8 °F 68% 30.09 in 10.0 mi West 4.6 mph - N/A   Overcast
10:15 PM 39.0 °F 36.8 °F 30.2 °F 71% 30.09 in 10.0 mi WSW 3.5 mph - N/A   Overcast
10:35 PM 38.1 °F 35.7 °F 30.6 °F 74% 30.07 in 10.0 mi WSW 3.5 mph - N/A   Overcast
10:55 PM 37.9 °F 35.5 °F 29.7 °F 72% 30.06 in 10.0 mi WSW 3.5 mph - N/A   Overcast
11:15 PM 38.3 °F 35.9 °F 30.6 °F 74% 30.06 in 10.0 mi WSW 3.5 mph - N/A   Overcast
11:35 PM 38.5 °F 35.0 °F 30.0 °F 72% 30.06 in 10.0 mi West 4.6 mph - N/A   Overcast
11:55 PM 38.3 °F 34.8 °F 29.8 °F 72% 30.05 in 10.0 mi WSW 4.6 mph - N/A   Overcast